sat.trackr.live / text

‹ back to catalog

STARLINK-11299 [DTC]

NORAD 61058 · 2024-164J

PAYLOAD ACTIVE UNKNOWN

§ Identity

Operator
Country
US
Launch date
2024-09-13
Launch site
AFWTR
Launch vehicle
Mass (kg)
RCS (m²)

Purposes: comms

External: N2YO · Heavens-Above · Gunter

§ Orbital elements

Epoch: 2026-05-24T19:56:25.680192Z

Period
91.74 min
Inclination
53.1586°
Eccentricity
0.0000759
Mean motion
15.69699730 rev/d
Perigee alt
359.2 km
Apogee alt
360.3 km
Semi-major
6,737.9 km
B*
8.8043e-6
RAAN
296.2131°
Arg perigee
100.8248°
Mean anomaly
259.2856°
Rev number
9,737

§ Raw data

STARLINK-11299 [DTC]1 61058U 24164J   26144.83085278  .00000478  00000+0  88043-5 0  99912 61058  53.1586 296.2131 0000759 100.8248 259.2856 15.69699730 97376

JSON: /api/v1/satellites/61058 · /tle

For live sub-satellite position, see the globe view (requires WebGL).

§ Visibility from observer

Set your observer location to see the next 7 days of passes ≥ 10°. The values pass through the URL so the page stays shareable.

No JS? Fill the form by hand. The geolocation button needs JavaScript.